Back to catalog

RANGE A

AliveScienceSSO
NORAD 43773·PAYLOAD·🇺🇸 United States

Launched Dec 3, 2018 from Vandenberg Space Force Base

Loading…

Next Passes (next 24 hours)

TLE

FreshSource: Space-Track

Epoch: Sep 14, 2026, 13:13 UTC

1 43773U 18099R   26257.55115842  .00003187  00000-0  17872-3 0  9991
2 43773  97.3886 297.5181 0011219  45.1702 315.0440 15.14024976426012

Track RANGE A in real time with AllMySat

Download on the App Store